[[{"header":{"parameterUnit":"m.s-1","parameterCategory":1,"la1":30.2991,"la2":30.254,"lo1":-89.0895,"lo2":-89.0444,"dy":0.0017,"dx":0.0017,"nx":28,"ny":28,"refTime":"2024-06-01T03:00:00:Z","depth":0,"parameterNumber":2,"parameterNumberName":"U-component_of_WINDS"},"data":[0,0,0,0,0,0,0,0,0,0,0,0,0,0,0,0,0,0,0,0,0,0,0,0,0,0,0,0,0,0,0,0,0,0,0,0,0,0,0,0,0,0,0,0,0,0,0,0,0,0,0,0,0,0,0,0,0,0,-4.2521,-4.2521,0,-4.253,-4.253,-4.253,-4.248,-4.2478,-4.2477,-4.2475,-4.2486,-4.2487,-4.2489,0,0,0,0,0,0,0,0,0,0,0,0,0,-4.2461,-4.2463,-4.2521,-4.2521,-4.2521,-4.253,-4.253,-4.253,-4.248,-4.2478,-4.2476,-4.2475,-4.2485,-4.2487,-4.2489,0,0,0,0,0,0,0,0,0,0,0,0,0,-4.2481,-4.2463,-4.2521,-4.2497,-4.2495,-4.253,-4.253,-4.253,-4.248,-4.2478,-4.2476,-4.2474,-4.2485,-4.2487,-4.2489,-4.2548,0,0,-4.2497,-4.2498,0,0,0,0,0,0,0,0,-4.248,-4.2483,-4.25,-4.2499,-4.2496,-4.2501,-4.2513,-4.2536,-4.2481,-4.2486,-4.2475,-4.2473,-4.2493,-4.2495,-4.2501,-4.2549,-4.2549,-4.2497,-4.2499,-4.25,-4.25,0,0,0,0,0,0,0,-4.2478,-4.2482,-4.2524,-4.2501,-4.2498,-4.2487,-4.2487,-4.2517,-4.2502,-4.2485,-4.2482,-4.2483,-4.2491,-4.2499,-4.2501,-4.2549,-4.2497,-4.2499,-4.2501,-4.2502,-4.2646,-4.2648,0,0,0,0,0,0,-4.248,-4.2481,-4.2524,-4.2525,-4.2482,-4.2489,-4.249,-4.2502,-4.2501,-4.2499,-4.2485,-4.2481,-4.2496,-4.2498,-4.2501,-4.2569,-4.25,-4.2502,-4.2503,-4.2644,-4.2647,-4.2649,0,0,0,0,0,0,-4.2479,-4.2484,-4.2524,-4.2502,-4.2506,-4.2493,-4.2507,-4.2503,-4.2511,-4.2501,-4.2498,-4.2495,-4.2494,-4.2498,-4.2537,-4.2568,-4.2503,-4.2505,-4.2641,-4.2645,-4.2648,-4.2705,0,0,0,0,0,0,-4.2477,-4.2484,-4.2506,-4.2503,-4.2508,-4.2559,-4.2509,-4.2505,-4.2515,-4.2509,-4.251,-4.2508,-4.2493,-4.2534,-4.2539,-4.2571,-4.2507,-4.2638,-4.2643,-4.2647,-4.27,-4.271,-4.2719,0,0,0,0,0,-4.2475,-4.2522,-4.2507,-4.2512,-4.2534,-4.2561,-4.2563,-4.2544,-4.2518,-4.2539,-4.2534,-4.2508,-4.2565,-4.2538,-4.2544,-4.2576,-4.2636,-4.2641,-4.2646,-4.2696,-4.2708,-4.2718,0,0,0,0,0,0,-4.2528,-4.2521,-4.2504,-4.2551,-4.2557,-4.2552,-4.2578,-4.2558,-4.2572,-4.2566,-4.2543,-4.2544,-4.2586,-4.2586,-4.2556,-4.2634,-4.2596,-4.2603,-4.2631,-4.2643,-4.2652,-4.2649,-4.2509,0,0,0,0,0,-4.2545,-4.2567,-4.256,-4.2601,-4.2605,-4.2592,-4.2603,-4.2588,-4.2593,-4.2595,-4.2592,-4.2599,-4.2618,-4.2631,-4.2649,-4.2702,-4.27,-4.2727,-4.2736,-4.2744,-4.2749,-4.2776,-4.2788,-4.2667,-4.2667,-4.2666,0,0,-4.258,-4.2579,-4.2594,-4.2612,-4.2615,-4.2638,-4.2594,-4.262,-4.2637,-4.26,-4.2635,-4.2634,-4.264,-4.2686,-4.2706,-4.2687,-4.2783,-4.2751,-4.2757,-4.2758,-4.2783,-4.2794,-4.2805,-4.267,-4.267,-4.2669,0,0,-4.2655,-4.2657,-4.2692,-4.2696,-4.2701,-4.2692,-4.2701,-4.27,-4.2697,-4.2733,-4.2705,-4.2726,-4.276,-4.2765,-4.2772,-4.2853,-4.2829,-4.286,-4.2906,-4.2933,-4.2942,-4.2951,-4.2977,-4.2988,-4.2865,-4.2866,-4.2866,0,-4.2698,-4.2731,-4.2712,-4.274,-4.2749,-4.2717,-4.2752,-4.2757,-4.2768,-4.2775,-4.2754,-4.2796,-4.2798,-4.2844,-4.2864,-4.2872,-4.2881,-4.2857,-4.2943,-4.2951,-4.2958,-4.2983,-4.2994,-4.2869,-4.2869,-4.2868,-4.2868,0,-4.2783,-4.2806,-4.2834,-4.2844,-4.2857,-4.2889,-4.2875,-4.289,-4.2876,-4.287,-4.2907,-4.2909,-4.2926,-4.2937,-4.2923,-4.2982,-4.297,-4.2947,-4.2907,-4.2973,-4.2996,-4.3006,-4.2874,-4.2873,-4.2872,-4.2871,0,0,-4.2887,-4.2889,-4.2899,-4.2903,-4.2908,-4.2926,-4.2957,-4.2974,-4.2986,-4.2997,-4.3021,-4.3052,-4.3031,-4.3039,-4.3026,-4.3051,-4.3112,-4.3024,-4.3024,-4.3038,-4.3176,-4.3191,-4.3202,-4.3099,-4.31,-4.3102,-4.3174,0,-4.2958,-4.3009,-4.2995,-4.3046,-4.3068,-4.304,-4.3067,-4.3073,-4.3069,-4.3087,-4.3084,-4.3105,-4.3076,-4.3081,-4.3104,-4.31,-4.3139,-4.3095,-4.312,-4.3121,-4.3116,-4.3215,-4.323,-4.3298,-4.3183,-4.3185,-4.3186,0,-4.3047,-4.306,-4.3114,-4.3115,-4.3124,-4.3148,-4.3162,-4.3181,-4.3188,-4.3183,-4.3194,-4.3177,-4.3208,-4.3172,-4.3214,-4.3185,-4.3195,-4.3195,-4.3198,-4.3196,-4.3155,-4.3213,-4.332,-4.3329,-4.3201,-4.3199,-4.3198,0,-4.3115,-4.3146,-4.3182,-4.3187,-4.3191,-4.3208,-4.3211,-4.3216,-4.3227,-4.3241,-4.3247,-4.3265,-4.3274,-4.3288,-4.3276,-4.3252,-4.3321,-4.3284,-4.3317,-4.3317,-4.3329,-4.3328,-4.3436,-4.3342,-4.3342,-4.3341,-4.3341,0,-4.3194,-4.3228,-4.3212,-4.3234,-4.3271,-4.3255,-4.3293,-4.3292,-4.3297,-4.3319,-4.3297,-4.3318,-4.3303,-4.3323,-4.3315,-4.3351,-4.3356,-4.3353,-4.3349,-4.3352,-4.3352,-4.3356,-4.335,-4.3344,-4.3344,-4.3343,-4.3343,0,-4.3274,-4.3266,-4.3302,-4.3303,-4.3304,-4.3331,-4.3332,-4.3353,-4.3349,-4.3376,-4.3382,-4.3375,-4.3398,-4.3389,-4.3413,-4.3408,-4.3453,-4.3445,-4.345,-4.3446,-4.3479,-4.3475,-4.359,-4.3604,-4.3504,-4.3505,-4.3506,0,-4.3324,-4.3348,-4.3352,-4.3365,-4.3369,-4.339,-4.3401,-4.3388,-4.3401,-4.3412,-4.3431,-4.3452,-4.3467,-4.3505,-4.3502,-4.3521,-4.3512,-4.3551,-4.3514,-4.3517,-4.3509,-4.3507,-4.3509,-4.3557,-4.3558,-4.3559,-4.356,0,-4.3412,-4.3406,-4.3423,-4.3439,-4.3453,-4.3466,-4.3476,-4.3488,-4.3475,-4.3491,-4.3514,-4.3526,-4.3551,-4.3571,-4.3589,-4.3592,-4.3574,-4.3573,-4.3581,-4.3582,-4.3583,-4.3581,-4.3466,-4.3569,-4.3568,-4.3567,-4.3567,-4.3567,-4.3476,-4.3497,-4.3502,-4.3522,-4.3529,-4.3539,-4.3558,-4.3557,-4.3575,-4.3594,-4.3586,-4.3612,-4.362,-4.3641,-4.3647,-4.3668,-4.3652,-4.3665,-4.3667,-4.367,-4.3673,-4.3583,-4.3671,-4.3671,-4.3671,-4.367,-4.367,0,-4.3561,-4.3563,-4.3582,-4.3597,-4.3613,-4.3596,-4.3607,-4.3621,-4.3644,-4.3653,-4.3669,-4.3696,-4.3716,-4.3717,-4.3736,-4.3752,-4.3745,-4.3758,-4.3754,-4.3755,-4.3687,-4.3676,-4.3763,-4.3763,-4.3763,-4.3763,-4.3763,-4.3763,-4.3606,-4.364,-4.3636,-4.3673,-4.3676,-4.37,-4.3708,-4.3718,-4.3725,-4.3755,-4.3772,-4.3772,-4.3778,-4.3798,-4.3816,-4.3816,-4.3823,-4.3838,-4.3835,-4.377,-4.376,-4.3751,-4.3741,-4.3841,-4.3841,-4.3902,-4.3902,-4.3903]},{"header":{"parameterUnit":"m.s-1","parameterCategory":1,"la1":30.2991,"la2":30.254,"lo1":-89.0895,"lo2":-89.0444,"dy":0.0017,"dx":0.0017,"nx":28,"ny":28,"refTime":"2024-06-01T03:00:00:Z","depth":0,"parameterNumber":3,"parameterNumberName":"V-component_of_WINDS"},"data":[0,0,0,0,0,0,0,0,0,0,0,0,0,0,0,0,0,0,0,0,0,0,0,0,0,0,0,0,0,0,0,0,0,0,0,0,0,0,0,0,0,0,0,0,0,0,0,0,0,0,0,0,0,0,0,0,0,0,4.458,4.458,0,4.4583,4.4583,4.4583,4.4555,4.4554,4.4553,4.4552,4.4555,4.4555,4.4556,0,0,0,0,0,0,0,0,0,0,0,0,0,4.4549,4.4549,4.458,4.458,4.458,4.4583,4.4583,4.4583,4.4555,4.4554,4.4553,4.4552,4.4554,4.4555,4.4556,0,0,0,0,0,0,0,0,0,0,0,0,0,4.4558,4.455,4.458,4.4566,4.4565,4.4583,4.4583,4.4583,4.4555,4.4554,4.4553,4.4552,4.4554,4.4555,4.4556,4.4587,0,0,4.456,4.4561,0,0,0,0,0,0,0,0,4.4558,4.4559,4.4568,4.4567,4.4566,4.4567,4.4573,4.4584,4.4555,4.4559,4.4552,4.4551,4.456,4.456,4.4564,4.4587,4.4588,4.456,4.4561,4.4561,4.4562,0,0,0,0,0,0,0,4.4557,4.4559,4.4581,4.4568,4.4567,4.456,4.456,4.4575,4.4566,4.4558,4.4556,4.4557,4.4559,4.4563,4.4563,4.4588,4.456,4.4561,4.4562,4.4562,4.4637,4.4638,0,0,0,0,0,0,4.4558,4.4559,4.4581,4.4581,4.4559,4.4561,4.4561,4.4568,4.4566,4.4564,4.4558,4.4556,4.4561,4.4562,4.4563,4.4599,4.4561,4.4563,4.4563,4.4636,4.4637,4.4639,0,0,0,0,0,0,4.4558,4.4561,4.4581,4.4569,4.4571,4.4563,4.4571,4.4569,4.4572,4.4565,4.4564,4.4564,4.456,4.4562,4.4582,4.4599,4.4563,4.4564,4.4634,4.4636,4.4638,4.4671,0,0,0,0,0,0,4.4557,4.456,4.4572,4.457,4.4572,4.4599,4.4572,4.457,4.4574,4.4571,4.457,4.4569,4.4559,4.458,4.4583,4.46,4.4565,4.4633,4.4635,4.4637,4.4668,4.4674,4.4678,0,0,0,0,0,4.4556,4.4581,4.4573,4.4576,4.4587,4.46,4.4601,4.4591,4.4576,4.4587,4.4583,4.4569,4.4597,4.4582,4.4585,4.4603,4.4631,4.4634,4.4637,4.4666,4.4673,4.4678,0,0,0,0,0,0,4.4585,4.458,4.4571,4.4596,4.4599,4.4595,4.4609,4.4598,4.4604,4.4601,4.4587,4.4587,4.461,4.4608,4.4592,4.4633,4.4611,4.4615,4.4632,4.4639,4.4644,4.4643,4.4566,0,0,0,0,0,4.4595,4.4606,4.4602,4.4624,4.4626,4.4618,4.4623,4.4615,4.4617,4.4618,4.4615,4.4617,4.4626,4.4632,4.4641,4.4668,4.4667,4.4682,4.4687,4.4691,4.4694,4.4709,4.4715,4.4648,4.4648,4.4648,0,0,4.4614,4.4613,4.4621,4.463,4.4631,4.4643,4.4619,4.4633,4.4642,4.4619,4.4638,4.4636,4.4638,4.4662,4.4672,4.4661,4.4713,4.4695,4.4698,4.4699,4.4712,4.4719,4.4724,4.465,4.465,4.4649,0,0,4.4655,4.4656,4.4675,4.4677,4.4679,4.4673,4.4678,4.4676,4.4674,4.4693,4.4677,4.4687,4.4703,4.4705,4.4708,4.4752,4.4738,4.4755,4.4781,4.4795,4.48,4.4805,4.482,4.4826,4.4758,4.4758,4.4758,0,4.4679,4.4697,4.4686,4.4701,4.4706,4.4687,4.4706,4.4708,4.4713,4.4716,4.4704,4.4725,4.4724,4.4748,4.4759,4.4762,4.4767,4.4754,4.4801,4.4805,4.4809,4.4823,4.4829,4.476,4.476,4.476,4.4759,0,4.4726,4.4739,4.4754,4.4759,4.4765,4.4782,4.4774,4.4782,4.4773,4.4769,4.4788,4.4787,4.4795,4.48,4.4792,4.4824,4.4817,4.4803,4.4781,4.4818,4.4831,4.4836,4.4763,4.4762,4.4761,4.4761,0,0,4.4784,4.4784,4.479,4.4792,4.4794,4.4803,4.482,4.4828,4.4834,4.4839,4.4852,4.4866,4.4854,4.4858,4.4849,4.4862,4.4896,4.4847,4.4846,4.4855,4.493,4.494,4.4947,4.4888,4.4889,4.489,4.493,0,4.4824,4.4853,4.4844,4.4872,4.4884,4.4867,4.4881,4.4883,4.488,4.4889,4.4886,4.4896,4.4879,4.4881,4.4893,4.4889,4.4911,4.4886,4.4899,4.49,4.4899,4.4954,4.4964,4.5002,4.4935,4.4936,4.4937,0,4.4875,4.4881,4.4911,4.4911,4.4915,4.4928,4.4935,4.4944,4.4947,4.4944,4.4948,4.4937,4.4953,4.4933,4.4954,4.4938,4.4943,4.4942,4.4943,4.4943,4.492,4.4954,4.5014,4.502,4.4945,4.4944,4.4943,0,4.4914,4.493,4.495,4.4953,4.4953,4.4963,4.4963,4.4965,4.497,4.4976,4.498,4.4988,4.4992,4.4998,4.499,4.4975,4.5012,4.4991,4.501,4.501,4.5017,4.5017,4.5078,4.5022,4.5022,4.5022,4.5022,0,4.4959,4.4978,4.4968,4.498,4.5,4.499,4.5011,4.5009,4.5011,4.5022,4.5008,4.5019,4.5008,4.5018,4.5012,4.503,4.5032,4.503,4.5028,4.5031,4.5031,4.5033,4.503,4.5023,4.5023,4.5023,4.5022,0,4.5006,4.5,4.5021,4.502,4.502,4.5035,4.5034,4.5045,4.5041,4.5056,4.5059,4.5053,4.5064,4.5057,4.5068,4.5063,4.5088,4.5082,4.5087,4.5085,4.5104,4.5103,4.5168,4.5176,4.5116,4.5116,4.5117,0,4.5035,4.5049,4.505,4.5057,4.5058,4.507,4.5075,4.5066,4.5073,4.5077,4.5088,4.5098,4.5105,4.5123,4.512,4.5128,4.5123,4.5145,4.5124,4.5126,4.5122,4.5121,4.5123,4.5149,4.515,4.515,4.5151,0,4.5086,4.5083,4.5092,4.5101,4.5108,4.5114,4.5119,4.5126,4.5116,4.5125,4.5136,4.5142,4.5153,4.5163,4.5171,4.5171,4.5159,4.5158,4.5163,4.5165,4.5167,4.5166,4.5098,4.5156,4.5156,4.5155,4.5155,4.5155,4.5125,4.5136,4.5139,4.515,4.5153,4.5158,4.5168,4.5166,4.5176,4.5185,4.5179,4.5192,4.5195,4.5203,4.5205,4.5215,4.5206,4.5213,4.5215,4.5216,4.5219,4.5166,4.5217,4.5217,4.5216,4.5216,4.5216,0,4.5175,4.5176,4.5187,4.5194,4.5203,4.5192,4.5197,4.5205,4.5217,4.5221,4.5228,4.5242,4.5252,4.5249,4.5258,4.5267,4.5262,4.5269,4.5268,4.5268,4.5227,4.5222,4.5273,4.5273,4.5273,4.5273,4.5273,4.5273,4.5202,4.5222,4.5219,4.524,4.5241,4.5254,4.5258,4.5263,4.5265,4.5281,4.5289,4.5288,4.5289,4.5298,4.5307,4.5306,4.5309,4.5319,4.5316,4.5277,4.5271,4.5266,4.5261,4.532,4.532,4.5356,4.5357,4.5357]}]]